FW4617 Weather Reports


time (UTC)temp
F
wind
direction
speed
knots
gust
knots
rain 1hr
in
rain 24hr
in
rain mn
in
humidity
%
barometer
mb
20260510164520 74 175 0.0 0.9 0.00 0.01 0.01 84 1017.5
20260510164016 73 197 0.9 1.7 0.00 0.01 0.01 85 1017.7
20260510163512 72 195 0.0 0.0 0.00 0.01 0.01 86 1017.8
20260510163008 71 195 0.9 1.7 0.00 0.01 0.01 92 1017.6
20260510162504 70 203 1.7 1.7 0.00 0.01 0.01 95 1017.8
20260510162000 69 211 0.9 0.9 0.00 0.01 0.01 99 1017.8
20260510161456 68 187 0.0 0.0 0.00 0.01 0.01 99 1018.0
20260510160953 68 200 0.0 0.9 0.00 0.01 0.01 99 1017.9
20260510160450 67 204 0.0 0.0 0.00 0.01 0.01 99 1017.7
20260510155948 67 196 0.0 0.0 0.00 0.01 0.01 99 1017.7
20260510155446 67 204 0.0 0.0 0.00 0.01 0.01 99 1017.8
20260510154942 67 203 0.0 0.9 0.00 0.01 0.01 99 1017.6
20260510154439 66 206 0.0 0.0 0.00 0.01 0.01 99 1018.2
20260510153937 66 195 1.7 1.7 0.00 0.01 0.01 99 1017.8
20260510153434 66 205 0.0 0.0 0.00 0.01 0.01 99 1017.7
20260510152931 66 191 1.7 1.7 0.00 0.01 0.01 99 1017.9
20260510152429 66 201 0.9 1.7 0.00 0.01 0.01 99 1018.0
20260510151925 66 203 0.0 0.9 0.00 0.01 0.01 99 1017.9
20260510151422 66 206 0.0 0.0 0.00 0.01 0.01 99 1017.8
20260510150918 66 178 0.9 0.9 0.00 0.01 0.01 99 1017.6
20260510150414 66 184 0.0 0.0 0.00 0.01 0.01 99 1017.7
20260510145910 66 145 0.0 0.0 0.00 0.01 0.01 99 1017.6
20260510145407 66 200 0.0 0.0 0.00 0.01 0.01 99 1017.4
20260510144904 65 207 0.9 1.7 0.00 0.01 0.01 99 1017.6
20260510144401 66 178 0.0 0.0 0.00 0.01 0.01 99 1017.4
20260510143900 65 178 0.0 0.0 0.00 0.01 0.01 99 1017.7
20260510143357 65 168 0.9 1.7 0.00 0.01 0.01 99 1017.5
20260510142854 65 178 0.0 0.0 0.00 0.01 0.01 99 1017.3
20260510142350 65 178 0.0 0.9 0.00 0.01 0.01 99 1017.5
20260510141847 65 178 0.0 0.0 0.00 0.01 0.01 99 1017.6
20260510141345 65 206 1.7 1.7 0.00 0.01 0.01 99 1017.4
20260510140842 65 201 0.0 0.0 0.00 0.01 0.01 99 1017.3
20260510140338 65 201 0.0 0.0 0.00 0.01 0.01 99 1017.3
20260510135837 65 205 0.0 0.9 0.00 0.01 0.01 99 1017.4
20260510135333 65 205 0.0 0.0 0.00 0.01 0.01 99 1017.4
20260510134831 64 206 0.0 0.0 0.00 0.01 0.01 99 1017.5
20260510134327 64 207 0.9 0.9 0.00 0.01 0.01 99 1017.3
20260510133823 64 207 0.9 0.9 0.00 0.01 0.01 99 1017.3
20260510133320 64 207 0.0 0.0 0.00 0.01 0.01 99 1017.4
20260510132815 64 208 0.9 1.7 0.00 0.01 0.01 99 1017.4
20260510132314 64 206 0.9 0.9 0.00 0.01 0.01 99 1017.3
20260510131810 64 207 0.0 0.0 0.00 0.01 0.01 99 1017.3
20260510131308 64 205 0.0 0.0 0.00 0.01 0.01 99 1017.4
20260510130804 64 204 0.0 0.9 0.00 0.01 0.01 99 1017.1
20260510130301 64 204 0.0 0.0 0.00 0.01 0.01 99 1017.3
20260510125757 64 206 0.0 0.0 0.00 0.01 0.01 99 1017.2
20260510125253 64 205 0.0 0.0 0.00 0.01 0.01 99 1017.0
20260510124750 64 207 0.0 0.0 0.00 0.01 0.01 99 1017.0
20260510124248 64 202 0.0 0.0 0.00 0.01 0.01 99 1017.0
20260510123743 64 201 0.9 0.9 0.00 0.01 0.01 99 1016.8
20260510123239 64 206 0.0 0.0 0.00 0.01 0.01 99 1017.0
20260510122736 64 206 0.9 0.9 0.00 0.01 0.01 99 1016.9
20260510122232 64 205 0.9 0.9 0.00 0.01 0.01 99 1016.8
20260510121728 63 205 0.0 0.9 0.00 0.01 0.01 99 1016.7
20260510121226 63 201 0.0 0.0 0.00 0.01 0.01 99 1016.8
20260510120723 63 201 0.0 0.0 0.00 0.01 0.01 99 1016.5
20260510120220 63 205 0.0 0.0 0.00 0.01 0.01 99 1016.4
20260510115715 63 204 0.0 0.0 0.00 0.01 0.01 99 1016.3
20260510115214 63 204 0.0 0.0 0.00 0.01 0.01 99 1016.2
20260510114709 63 204 0.0 0.0 0.00 0.01 0.01 99 1016.3
20260510114206 63 204 0.0 0.0 0.00 0.01 0.01 99 1016.0
20260510113701 63 204 0.0 0.0 0.00 0.01 0.01 99 1016.0
20260510113158 63 205 0.0 0.0 0.00 0.01 0.01 99 1015.9
20260510112654 63 206 0.0 0.0 0.00 0.01 0.01 99 1015.9
20260510112152 63 206 0.0 0.0 0.00 0.01 0.01 99 1015.7
20260510111648 63 206 0.0 0.0 0.00 0.01 0.01 99 1015.5
20260510111145 63 206 0.0 0.0 0.00 0.01 0.01 99 1015.4
20260510110639 63 205 0.0 0.0 0.00 0.01 0.01 99 1015.4
20260510110137 63 205 0.0 0.0 0.00 0.01 0.01 99 1015.2
20260510105633 63 205 0.0 0.0 0.00 0.01 0.01 99 1014.9
20260510105131 63 205 0.0 0.0 0.00 0.01 0.01 99 1014.9
20260510104629 63 206 0.0 0.0 0.00 0.01 0.01 99 1015.0
20260510104126 63 206 0.0 0.0 0.00 0.01 0.01 99 1014.6
20260510103623 63 205 0.0 0.0 0.00 0.01 0.01 99 1014.6
20260510103118 63 205 0.0 0.0 0.00 0.01 0.01 99 1014.6
20260510102614 63 205 0.0 0.0 0.00 0.01 0.01 99 1014.9
20260510102110 63 202 0.0 0.0 0.00 0.01 0.01 99 1014.6
20260510101608 63 202 0.0 0.0 0.00 0.01 0.01 99 1014.5
20260510101106 63 202 0.0 0.0 0.00 0.01 0.01 99 1014.3
20260510100602 63 202 0.0 0.0 0.00 0.01 0.01 99 1014.6
20260510100100 63 202 0.0 0.0 0.00 0.01 0.01 99 1014.6
20260510095556 63 202 0.0 0.0 0.00 0.01 0.01 99 1014.6
20260510095056 63 202 0.0 0.0 0.00 0.01 0.01 99 1014.4
20260510094555 63 202 0.0 0.0 0.00 0.01 0.01 99 1014.5
20260510094051 63 202 0.0 0.0 0.00 0.01 0.01 99 1014.2
20260510093547 63 202 0.0 0.0 0.07 0.01 0.01 99 1014.3
20260510093044 63 202 0.0 0.0 0.07 0.01 0.01 99 1014.3
20260510092541 63 202 0.0 0.0 0.07 0.01 0.01 99 1014.2
20260510092041 63 202 0.9 0.9 0.00 0.00 0.00 99 1014.2
20260510091538 63 205 0.0 0.0 0.00 0.00 0.00 99 1013.9
20260510091033 63 206 0.0 0.0 0.00 0.00 0.00 99 1014.0
20260510090531 63 206 0.0 0.0 0.00 0.00 0.00 99 1013.9
20260510090026 63 206 0.0 0.0 0.00 0.00 0.00 99 1013.9
20260510085527 63 206 0.0 0.0 0.00 0.00 0.00 99 1013.9
20260510085023 63 206 0.0 0.0 0.00 0.00 0.00 99 1013.8
20260510084520 63 205 0.0 0.0 0.00 0.00 0.00 99 1013.8
20260510084016 63 206 0.0 0.0 0.00 0.00 0.00 99 1013.8
20260510083513 63 206 0.0 0.0 0.00 0.00 0.00 99 1013.8
20260510083009 63 206 0.0 0.0 0.00 0.00 0.00 99 1013.8
20260510082507 63 206 0.0 0.0 0.00 0.00 0.00 99 1013.5
20260510082006 63 206 0.0 0.0 0.00 0.00 0.00 99 1013.5
20260510081502 63 206 0.0 0.0 0.00 0.00 0.00 99 1013.4
20260510080958 63 207 0.0 0.0 0.00 0.00 0.00 99 1013.4
20260510080456 63 207 0.0 0.0 0.00 0.00 0.00 99 1013.3
20260510075954 63 207 0.0 0.0 0.00 0.00 0.00 99 1013.2
20260510075451 63 207 0.0 0.0 0.00 0.00 0.00 99 1013.4
20260510074948 63 207 0.0 0.0 0.00 0.00 0.00 99 1013.2
20260510074445 63 207 0.0 0.0 0.00 0.00 0.00 99 1013.2
20260510073941 63 206 0.0 0.0 0.00 0.00 0.00 99 1013.4
20260510073437 62 206 0.0 0.0 0.00 0.00 0.00 99 1013.2
20260510072934 63 206 0.0 0.0 0.00 0.00 0.00 99 1013.2
20260510072431 63 207 0.0 0.0 0.00 0.00 0.00 99 1013.2
20260510071926 63 207 0.0 0.0 0.00 0.00 0.00 99 1013.1
20260510071423 62 207 0.0 0.0 0.00 0.00 0.00 99 1013.2
20260510070921 63 207 0.0 0.0 0.00 0.00 0.00 99 1013.3
20260510070418 63 207 0.0 0.0 0.00 0.00 0.00 99 1013.4
20260510065913 63 207 0.0 0.0 0.00 0.00 0.00 99 1013.5
20260510065410 63 207 0.0 0.0 0.00 0.00 0.00 99 1013.1
20260510064907 62 207 0.0 0.0 0.00 0.00 0.00 99 1013.4
20260510064405 61 207 0.0 0.0 0.00 0.00 0.00 99 1013.3
20260510063900 61 207 0.0 0.0 0.00 0.00 0.00 99 1013.4
20260510063357 61 205 0.0 0.0 0.00 0.00 0.00 99 1013.6
20260510062854 60 204 0.0 0.0 0.00 0.00 0.00 99 1013.2
20260510062349 62 204 0.0 0.9 0.00 0.00 0.00 99 1013.4
20260510061845 61 204 0.0 0.0 0.00 0.00 0.00 99 1013.7
20260510061342 60 201 0.0 0.0 0.00 0.00 0.00 99 1013.6
20260510060838 60 201 0.0 0.0 0.00 0.00 0.00 99 1013.7
20260510060335 60 201 0.0 0.0 0.00 0.00 0.00 99 1013.7
20260510055832 60 206 0.0 0.0 0.00 0.00 0.00 99 1013.6
20260510055331 59 206 0.0 0.0 0.00 0.00 0.00 99 1013.7
20260510054830 59 206 0.0 0.0 0.00 0.00 0.00 99 1013.5
20260510054326 60 206 0.0 0.0 0.00 0.00 0.00 99 1013.7
20260510053821 59 201 0.0 0.0 0.00 0.00 0.00 99 1013.7
20260510053317 59 201 0.0 0.0 0.00 0.00 0.00 99 1013.7
20260510052814 59 201 0.0 0.0 0.00 0.00 0.00 99 1013.7
20260510052309 59 201 0.0 0.0 0.00 0.00 0.00 99 1013.8
20260510051806 60 206 0.0 0.0 0.00 0.00 0.00 99 1013.7
20260510051302 60 206 0.0 0.0 0.00 0.00 0.00 99 1013.9
20260510050800 60 206 0.0 0.0 0.00 0.00 0.00 99 1013.8
20260510050256 60 206 0.0 0.0 0.00 0.00 0.00 99 1013.9
20260510045753 60 206 0.0 0.0 0.00 0.05 0.05 99 1013.9
20260510045250 60 206 0.0 0.0 0.00 0.05 0.05 99 1013.8
20260510044747 60 206 0.0 0.0 0.00 0.05 0.05 99 1013.8
20260510044245 61 206 0.0 0.0 0.00 0.05 0.05 99 1013.8
20260510043740 60 207 0.0 0.0 0.00 0.05 0.05 99 1013.7
20260510043237 61 205 0.0 0.0 0.00 0.05 0.05 99 1013.8
20260510042734 61 204 0.0 0.0 0.00 0.05 0.05 99 1013.9
20260510042229 61 206 0.0 0.0 0.00 0.05 0.05 99 1014.1
20260510041727 61 206 0.0 0.0 0.00 0.05 0.05 99 1013.8
20260510041224 61 206 0.0 0.0 0.00 0.05 0.05 99 1014.1
20260510040721 61 206 0.0 0.0 0.00 0.05 0.05 99 1014.1
20260510040217 61 206 0.0 0.0 0.00 0.05 0.05 99 1014.1
20260510035713 62 206 0.0 0.0 0.00 0.05 0.05 99 1014.0
20260510035209 61 206 0.0 0.0 0.00 0.05 0.05 99 1014.2
20260510034705 61 206 0.0 0.0 0.00 0.05 0.05 99 1014.3
20260510034203 61 206 0.0 0.0 0.00 0.05 0.05 99 1014.3
20260510033659 62 206 0.0 0.0 0.00 0.05 0.05 99 1014.3
20260510033157 62 206 0.0 0.0 0.00 0.05 0.05 99 1014.4
20260510032653 62 206 0.0 0.0 0.00 0.05 0.05 99 1014.4
20260510032148 62 206 0.0 0.0 0.00 0.05 0.05 99 1014.3
20260510031643 63 206 0.0 0.0 0.00 0.05 0.05 99 1014.3
20260510031141 62 207 0.0 0.0 0.00 0.05 0.05 99 1014.3
20260510030640 62 206 0.0 0.0 0.00 0.05 0.05 99 1014.3
20260510030138 62 207 0.0 0.0 0.00 0.05 0.05 99 1014.2
20260510025635 61 206 0.0 0.0 0.00 0.05 0.05 99 1014.0
20260510025132 61 220 0.0 0.9 0.00 0.05 0.05 99 1014.2
20260510024629 62 190 0.0 0.0 0.00 0.05 0.05 99 1014.0
20260510024126 62 190 0.0 0.0 0.00 0.05 0.05 99 1013.8
20260510023622 62 190 0.0 0.0 0.00 0.05 0.05 99 1013.7
20260510023119 62 190 0.0 0.0 0.00 0.05 0.05 99 1013.6
20260510022619 62 190 0.0 0.0 0.00 0.05 0.05 99 1013.8
20260510022114 62 190 0.0 0.0 0.00 0.05 0.05 99 1013.8
20260510021610 62 190 0.0 0.0 0.00 0.05 0.05 99 1013.4
20260510021108 62 190 0.0 0.0 0.00 0.05 0.05 99 1013.3
20260510020607 63 190 0.0 0.0 0.00 0.05 0.05 99 1013.3
20260510020103 63 190 0.0 0.0 0.00 0.05 0.05 99 1013.4
20260510015559 63 190 0.0 0.0 0.00 0.05 0.05 99 1013.2
20260510015056 63 190 0.0 0.0 0.00 0.05 0.05 99 1013.0
20260510014552 64 190 0.0 0.0 0.00 0.05 0.05 99 1013.0
20260510014049 64 190 0.0 0.0 0.00 0.05 0.05 99 1012.9
20260510013544 64 190 0.0 0.0 0.00 0.05 0.05 99 1012.7
20260510013040 64 190 0.0 0.0 0.00 0.05 0.05 99 1012.8
20260510012533 64 190 0.0 0.0 0.00 0.05 0.05 99 1012.7
20260510012031 65 190 0.0 0.0 0.00 0.05 0.05 99 1012.7
20260510011530 65 190 0.0 0.0 0.00 0.05 0.05 99 1012.5
20260510011026 65 190 0.0 0.0 0.00 0.05 0.05 99 1012.3
20260510010523 65 190 0.0 0.0 0.00 0.05 0.05 99 1012.2
20260510010020 66 190 0.0 0.0 0.00 0.05 0.05 99 1012.2
20260510005515 66 190 0.0 0.0 0.00 0.05 0.05 99 1012.0
20260510005013 66 190 0.0 0.0 0.00 0.05 0.05 99 1012.1
20260510004510 66 190 0.0 0.0 0.00 0.05 0.05 99 1012.2
20260510004008 67 190 0.0 0.0 0.00 0.05 0.05 99 1011.9
20260510003505 67 190 0.0 0.0 0.00 0.05 0.05 99 1011.8
20260510003000 67 190 0.0 0.0 0.00 0.05 0.05 98 1011.6
20260510002456 68 190 0.0 0.0 0.00 0.05 0.05 99 1011.6
20260510001953 68 190 0.0 0.0 0.00 0.05 0.05 99 1011.7
20260510001450 68 190 0.0 0.0 0.00 0.05 0.05 99 1011.6
20260510000948 68 190 0.0 0.0 0.00 0.05 0.05 98 1011.6
20260510000444 68 190 0.0 0.0 0.00 0.05 0.05 98 1011.6
20260509235940 68 190 0.0 0.0 0.00 0.05 0.05 98 1011.5
20260509235437 68 190 0.0 0.0 0.00 0.05 0.05 97 1011.5
20260509234933 69 190 0.0 0.0 0.00 0.05 0.05 97 1011.5
20260509234430 69 212 0.0 0.0 0.00 0.05 0.05 97 1011.5
20260509233928 69 212 0.0 0.0 0.00 0.05 0.05 97 1011.5
20260509233426 69 212 0.0 0.0 0.00 0.05 0.05 96 1011.4
20260509232922 69 212 0.0 0.0 0.00 0.05 0.05 96 1011.4
20260509232420 69 212 0.0 0.0 0.00 0.05 0.05 97 1011.4
20260509231915 70 212 0.0 0.0 0.00 0.05 0.05 97 1011.6
20260509231412 70 212 0.0 0.0 0.00 0.05 0.05 96 1011.5
20260509230910 70 212 0.0 0.0 0.00 0.05 0.05 96 1011.3
20260509230407 70 212 0.0 0.0 0.00 0.05 0.05 95 1011.5
20260509225902 70 212 0.9 0.9 0.00 0.05 0.05 95 1011.4
20260509225359 71 212 0.0 0.0 0.00 0.05 0.05 95 1011.3
20260509224855 71 212 0.0 0.0 0.00 0.05 0.05 94 1011.5
20260509224351 72 212 0.9 0.9 0.00 0.05 0.05 93 1011.3
20260509223849 71 212 0.0 0.0 0.00 0.05 0.05 89 1011.4
20260509223345 72 212 0.0 0.0 0.00 0.05 0.05 89 1011.5
20260509222843 72 212 0.9 0.9 0.00 0.05 0.05 83 1011.5
20260509222343 72 212 0.0 0.0 0.00 0.05 0.05 84 1011.2
20260509221838 72 216 2.6 2.6 0.00 0.05 0.05 83 1011.1
20260509221337 72 178 0.9 0.9 0.00 0.05 0.05 84 1011.2
20260509220837 73 210 1.7 1.7 0.00 0.05 0.05 84 1011.2
20260509220333 73 183 0.0 0.0 0.00 0.05 0.05 83 1011.2
20260509215828 72 184 0.0 0.0 0.00 0.05 0.05 82 1011.1
20260509215325 72 215 0.9 0.9 0.00 0.05 0.05 83 1011.1
20260509214822 74 215 0.0 0.0 0.00 0.05 0.05 80 1011.0
20260509214319 73 217 0.0 0.9 0.00 0.05 0.05 80 1011.1
20260509213817 72 221 0.9 0.9 0.00 0.05 0.05 82 1010.8
20260509213312 73 285 1.7 2.6 0.00 0.05 0.05 83 1010.9
20260509212810 73 211 0.0 0.0 0.00 0.05 0.05 81 1010.8
20260509212307 73 244 2.6 2.6 0.00 0.05 0.05 82 1010.5
20260509211802 74 220 1.7 1.7 0.00 0.05 0.05 80 1010.5
20260509211259 74 208 0.0 0.9 0.00 0.05 0.05 80 1010.6
20260509210756 73 174 0.0 0.0 0.00 0.05 0.05 81 1010.8
20260509210254 74 194 0.0 0.0 0.00 0.05 0.05 79 1010.7
20260509205753 73 194 0.0 0.0 0.00 0.05 0.05 80 1010.7
20260509205248 72 269 1.7 1.7 0.00 0.05 0.05 81 1010.6
20260509204744 72 188 0.9 0.9 0.00 0.05 0.05 82 1010.6
20260509204240 73 181 0.9 0.9 0.00 0.05 0.05 80 1010.5
20260509203736 72 207 0.9 0.9 0.00 0.05 0.05 83 1010.7
20260509203235 72 311 2.6 4.3 0.00 0.05 0.05 83 1010.9
20260509202730 71 181 0.0 0.0 0.00 0.05 0.05 84 1010.9
20260509202226 72 164 1.7 2.6 0.00 0.05 0.05 84 1010.9
20260509201721 72 188 0.0 0.9 0.00 0.05 0.05 83 1011.2
20260509201218 72 280 1.7 2.6 0.00 0.05 0.05 83 1011.3
20260509200714 72 202 0.9 0.9 0.00 0.05 0.05 84 1011.4
20260509200209 72 175 0.9 0.9 0.00 0.05 0.05 83 1011.5
20260509195705 72 227 0.9 0.9 0.00 0.05 0.05 83 1011.6
20260509195201 71 213 2.6 2.6 0.00 0.05 0.05 84 1011.5
20260509194701 71 310 2.6 2.6 0.00 0.05 0.05 84 1011.4
20260509194158 72 229 1.7 1.7 0.00 0.05 0.05 82 1011.5
20260509193654 72 88 0.9 1.7 0.00 0.05 0.05 82 1011.6
20260509193149 70 201 0.0 0.0 0.00 0.05 0.05 85 1011.4
20260509192646 71 127 0.9 0.9 0.00 0.05 0.05 84 1011.5
20260509192141 72 200 2.6 2.6 0.00 0.05 0.05 83 1011.6
20260509191641 71 190 0.0 0.9 0.00 0.05 0.05 84 1011.6
20260509191138 70 170 0.0 0.0 0.00 0.05 0.05 85 1011.8
20260509190635 70 302 2.6 2.6 0.00 0.05 0.05 85 1011.8
20260509190132 71 191 0.9 0.9 0.00 0.05 0.05 85 1011.7
20260509185629 69 202 0.9 0.9 0.00 0.05 0.05 87 1011.9
20260509185125 70 199 0.0 0.9 0.00 0.05 0.05 86 1012.0
20260509184624 69 199 1.7 1.7 0.00 0.05 0.05 88 1011.9
20260509184120 70 191 0.0 0.0 0.00 0.05 0.05 86 1011.8
20260509183616 68 184 0.9 0.9 0.00 0.05 0.05 88 1012.1
20260509183111 69 252 1.7 1.7 0.00 0.05 0.05 89 1012.2
20260509182608 68 189 0.0 0.0 0.00 0.05 0.05 91 1012.3
20260509182105 68 200 1.7 2.6 0.00 0.05 0.05 91 1012.4
20260509181603 68 211 1.7 2.6 0.00 0.05 0.05 90 1012.3
20260509181100 68 203 0.0 0.0 0.00 0.05 0.05 91 1012.5
20260509180555 67 196 1.7 1.7 0.00 0.05 0.05 92 1012.5
20260509180053 68 201 0.9 0.9 0.00 0.05 0.05 89 1012.6
20260509175548 68 199 0.0 0.0 0.00 0.05 0.05 90 1012.6
20260509175046 67 206 2.6 2.6 0.00 0.05 0.05 91 1012.8
20260509174542 66 197 2.6 2.6 0.00 0.05 0.05 93 1012.8
20260509174038 67 222 3.5 4.3 0.00 0.05 0.05 94 1012.9
20260509173538 67 211 0.9 1.7 0.00 0.05 0.05 95 1012.8
20260509173034 66 205 1.7 1.7 0.00 0.05 0.05 95 1012.8
20260509172531 66 201 0.0 0.9 0.00 0.05 0.05 95 1012.8
20260509172027 65 196 0.9 1.7 0.00 0.05 0.05 95 1012.7
20260509171523 65 163 3.5 4.3 0.00 0.05 0.05 96 1012.9
20260509171020 65 196 3.5 4.3 0.00 0.05 0.05 97 1012.9
20260509170515 65 209 2.6 2.6 0.00 0.05 0.05 97 1012.8
20260509170012 66 192 3.5 4.3 0.00 0.05 0.05 96 1013.0
20260509165510 65 176 0.0 0.0 0.00 0.05 0.05 98 1012.9
20260509165006 65 197 2.6 2.6 0.00 0.05 0.05 98 1012.8